STARLINK-32571, 62055

Orbit data source: Space-Track

STARLINK-32571, 62055 is a payload satellite owned by SpaceX/Seattle (US) in LEO that was launched on Thu, 21 Nov 2024 UTC via an FALCON 9 launch vehicle from the Air Force Eastern Test Range (AFETR). Payload-class satellites include a variety of spacecraft equipped with specific instruments for various scientific and technological missions. These include communications satellites like Starlink; space stations such as the ISS; scientific satellites like the Hubble; Earth observation satellites from companies like Planet Labs, Umbra, and HawkEye 360; GPS; miniature CubeSats for education and research; and military/defense satellites.

Loading next visibility...
Identifier
62055, 2024-216Z
Orbit
LEO
Country
Flag of USUS
Related business
Manufacturer
SpaceX/Seattle
Mission
Operational Commercial Communications
Bus & Motor
STARLINK V2M, Unknown motor
Mass
730 kg wet, ~700 kg dry
Launch date (UTC)
2024-11-21 (11 months ago)
Launch vehicle
FALCON 9
Launch site
Air Force Eastern Test Range (AFETR)
Object type
Payload
Rocket body
Debris
Shape & HBR
Box + 2 Pan, 17.7 m
Radar Cross Section
33.884 m², Large (>1 m²)

Expand to show TLE details & history
Last TLE update: 17 hours ago

TLE from 17 hours ago
0 STARLINK-32571
1 62055U 24216Z   25287.89021102  .00025146  00000-0  92054-3 0  9991
2 62055  42.9952 359.1875 0000219  28.1013 331.9851 15.27566690 51683
Epoch: 2025-10-14T21:21Z
TLE epoch observation values (Epoch: 2025-10-14T21:21:54.232Z)
Latitude
0.00004°
Longitude
15.03943°
Altitude
482.731 km
Speed
7.626 km/s
True Right ascension
23h 56m 45s
True Declination
0° 00' 00"
Sunlit
Object was in full shadow at epoch
Visualization orbit readout
Latitude
Unknown
Longitude
Unknown
Altitude
Unknown
Speed
Unknown
Apparent Right ascension
Unknown
Apparent Declination
Unknown
Sunlit
N/A
Visualization observer readout
Local Sidereal Time
08:40:08
Azimuth
Unknown
Elevation
Unknown
Doppler factor
Unknown
Orbital elements
Apogee altitude
485.185 km
Perigee altitude
484.885 km
Semi-major axis
6,863.172 km
Eccentricity
0.00002
Inclination
42.9952°
RAAN
359.1875°
Arg. of periapsis
28.1013°
True anomaly
331.98392°
Mean anomaly
331.9851°
Eccentric anomaly
331.98451°
Mean motion
3.8173 °/min
Orbital period
94.31 mins
BSTAR
0.00092054
Loading maneuver chart data...
Computing Atmospheric mass density...
Loading historical data...
Loading historical data...
Loading historical data...
Loading historical data...
Loading historical data...
Loading historical data...
Loading historical data...

Documentation

Showing up to 5 results
|